SCD 2

Last updated on Mon Sep 07 2026 00:02:44 GMT+0000 (Coordinated Universal Time)

1 25504U 98060A 26249.21467735 .00000306 00000+0 34438-4 0 9991 2 25504 24.9955 292.4566 0016469 259.4233 152.4716 14.45549682472063
UTC large
Height (km)
Speed (km/s)
/
Latitude / Longitude
Inclination (degrees)
Orbital Period (minutes)
Azimuth
Elevation
Range (km)
Doppler Factor

Next 0 passes for location: London (51.5072 / 0.1276)

No passes found over London.
SCD 2